Regional Weather Roundup
Issued by NWS

Home | Current Version | Previous Version | Text Only | Print | Product List | Glossary Off
Versions: 1 2 3 4 5 6 7 8 9 10 11 12 13 14 15 16 17 18 19 20 21 22 23 24 25 26 27 28 29 30 31 32 33 34 35 36 37 38 39 40 41 42 43 44 45 46 47 48 49 50

000
ASUS43 KLOT 271403
RWRIL

ILLINOIS REGIONAL WEATHER ROUNDUP
NATIONAL WEATHER SERVICE CHICAGO/ROMEOVILLE IL
900 AM CDT THU APR 27 2017

NOTE: "FAIR" INDICATES FEW OR NO CLOUDS BELOW 12,000 FEET WITH NO
SIGNIFICANT WEATHER AND/OR OBSTRUCTIONS TO VISIBILITY.

* THESE STATIONS ARE NOT UNDER NWS QUALITY CONTROL. THEY ALSO MAY NOT
  REPORT WEATHER SUCH AS PRECIPITATION OR FOG.

ILZ001-002-007-009-015-016-024-271500-
NORTHWEST ILLINOIS

CITY           SKY/WX    TMP DP  RH WIND       PRES   REMARKS
MOLINE         CLOUDY    41  35  79 W16G24    29.58R
STERLING*      LGT RAIN  38  37  97 W16       29.56R WCI  29
$$

ILZ003-004-008-010-011-017-018-271500-
NORTH CENTRAL ILLINOIS

CITY           SKY/WX    TMP DP  RH WIND       PRES   REMARKS
ROCKFORD       LGT RAIN  41  38  89 W16G23    29.52R
FREEPORT*      RAIN      38  36  92 SW16G22   29.54R WCI  29
ROCHELLE*      CLOUDY    40  38  93 W20G28    29.54R
DE KALB*       CLOUDY    42  39  90 W21G28    29.51R
$$

ILZ005-006-012>014-019>023-271500-
NORTHEAST ILLINOIS

CITY           SKY/WX    TMP DP  RH WIND       PRES   REMARKS
CHICAGO-OHARE  CLOUDY    47  43  86 W21G33    29.47R
CHICAGO-MIDWAY CLOUDY    46  43  89 W26G37    29.48R
AURORA         LGT RAIN  45  41  86 SW21      29.52R
LANSING*       CLOUDY    46  44  95 W24G30    29.50R
WAUKEGAN       CLOUDY    47  45  93 W12G21    29.40R
DUPAGE AIRPORT CLOUDY    45  43  93 W17G26    29.49R
WHEELING       CLOUDY    47  45  93 W15G26    29.46R
NORTHERLY ISL    N/A     48  42  80 SW16        N/A
$$

LMZ740>746-271500-
SOUTHERN LAKE MICHIGAN

STATION/POSITION SKY/WX   TEMP    WIND        PRES    VSBY  WAVE
                          AIR SEA DIR/SP/G                  HT/PER
                          (F)     (DEG/KT/KT) (MB)    (MI)  (FT/S)
SOUTHERN BUOY              48 42  130/ 19/ 23  992.1          2/ 4
HARRISON CRIB              49     240/ 28/ 32   N/A
BURNHAM HARBOR             47     220/  9/ 22   N/A
CALUMET HARBOR             47     230/ 10/ 16  997.5R
BURNS HARBOR               49     230/ 19/ 26  999.0R
MICHIGAN CITY              49     200/ 23/ 29   N/A
MICHIGAN CITY 6N           48 49                N/A           5/ 4
ST. JOSEPH                 51 48  240/ 25/ 33  997.7R         5/ 5
$$

ILZ025>027-034>036-040-047-049-050-058-095>099-271500-
WEST-CENTRAL ILLINOIS

CITY           SKY/WX    TMP DP  RH WIND       PRES   REMARKS
QUINCY         CLOUDY    42  38  85 W12       29.67R
MACOMB*        CLOUDY    41  39  94 W16       29.66R
PITTSFIELD*    CLOUDY    44  41  88 W10G17    29.69R
$$

ILZ028>032-037-038-041>044-048-051>054-059>061-271500-
CENTRAL ILLINOIS

CITY           SKY/WX    TMP DP  RH WIND       PRES   REMARKS
BLOOMINGTON    CLOUDY    43  38  82 W17G25    29.62R
DECATUR        CLOUDY    46  42  86 W17G28    29.65R
PEORIA         CLOUDY    42  39  89 W16       29.63R
SPRINGFIELD    CLOUDY    45  42  89 W15       29.66R FOG
TAYLORVILLE    NOT AVBL
$$

ILZ033-039-045-046-055>057-062-063-271500-
EAST-CENTRAL ILLINOIS

CITY           SKY/WX    TMP DP  RH WIND       PRES   REMARKS
CHAMPAIGN      CLOUDY    47  41  80 W20G25    29.63R
MATTOON        CLOUDY    47  42  83 W14G22    29.65R
$$

ILZ079-100>102-271500-
SOUTHWEST ILLINOIS

CITY           SKY/WX    TMP DP  RH WIND       PRES   REMARKS
ALTON          CLOUDY    46  41  81 W15       29.71R
BELLEVILLE     CLOUDY    48  48  99 SW8       29.70R
CAHOKIA*       CLOUDY    49  41  74 W12G20    29.72R
$$

ILZ064>066-069>071-074>076-080>082-084>086-088>090-092>094-271500-
SOUTH-CENTRAL ILLINOIS

CITY           SKY/WX    TMP DP  RH WIND       PRES   REMARKS
CARBONDALE     CLOUDY    49  46  90 W9        29.74R
CAIRO*         CLOUDY    50  46  87 W6        29.76R
MT. VERNON     CLOUDY    49  47  93 W10       29.71R FOG
CENTRALIA*     CLOUDY    49  45  85 W13       29.70R
SALEM*         CLOUDY    51  44  78 W10       29.70R
$$

ILZ067-068-072-073-078-083-087-091-271500-
SOUTHEAST ILLINOIS

CITY           SKY/WX    TMP DP  RH WIND       PRES   REMARKS
LAWRENCEVILLE  CLOUDY    52  46  80 W18G24    29.68R
FLORA*         CLOUDY    51  48  89 W7        29.69R
HARRISBURG*    CLOUDY    53  48  85 W15       29.73R
ROBINSON*      CLOUDY    49  45  85 W16G26    29.68R
CARMI*         PTSUNNY   53  50  87 W13G21    29.70R
$$

ABBREVIATIONS USED IN REMARKS
   TC - TEMPERATURE IN CELSIUS
  WCI - WIND CHILL INDEX
   HX - HEAT INDEX
  VSB - VISIBILITY
$$





USA.gov is the U.S. government's official web portal to all federal, state and local government web resources and services.